Location: Glencliff
(36.1226°N, 86.7183°W)
Time: 11:33:54
(UTC+00:00)

Cosmos 1603 - Pass Details

Date: 25 August 2019
Orbit: 831 x 860 km, 71.0° (Epoch: 20 October)

Event Time Altitude Azimuth Distance (km) Brightness Sun altitude
Rises 08:45:47 0° 341° (NNW) 3,389 7.1 -27.3°
Reaches altitude 10° 08:48:15 10° 345° (NNW) 2,455 6.4 -26.9°
Maximum altitude 08:53:51 65° 67° (ENE) 924 4.0 -26.0°
Drops below altitude 10° 08:59:27 10° 149° (SSE) 2,460 6.0 -25.1°
Sets 09:01:55 0° 152° (SSE) 3,397 6.8 -24.7°
